Regional Weather Roundup
Issued by NWS State College, PA

Home | Current Version | Previous Version | Graphics & Text | Print | Product List | Glossary On
Versions: 1 2 3 4 5 6 7 8 9 10 11 12 13 14 15 16 17 18 19 20 21 22 23 24 25 26 27 28 29 30 31 32 33 34 35 36 37 38 39 40 41 42 43 44 45 46 47 48 49 50
000
ASUS41 KCTP 190203
RWRCTP

REGIONAL WEATHER ROUNDUP
NATIONAL WEATHER SERVICE STATE COLLEGE PA
1000 PM EDT SAT APR 18 2015

Note: "fair" indicates few or no clouds below 12,000 feet with no
significant weather and/or obstructions to visibility.

* = STATION THAT DOES NOT REPORT PRECIPITATION /E.G. RAIN...SNOW...ETC/
    THUNDER OR FOG.

PAZ002>004-007>009-013>016-020>023-029>032-190300-
WESTERN PENNSYLVANIA

CITY           SKY/WX    TMP DP  RH WIND       PRES   REMARKS
ERIE           PTCLDY    53  25  33 NE10      30.13S
MEADVILLE      MOCLDY    54  29  38 NE12      30.11S
FRANKLIN*      MOCLDY    55  30  38 NE9       30.12S
NEW CASTLE     FAIR      60  38  44 N5        30.10R
BEAVER COUNTY  NOT AVBL
BUTLER*        CLOUDY    63  39  42 N5        30.10R
PITTSBURGH INT CLOUDY    67  42  40 N10       30.06S
PITTSBURGH     CLOUDY    65  35  33 N9        30.05S
INDIANA*       PTCLDY    64  39  39 NE6       30.10S
LATROBE        CLEAR     64  41  42 VRB5      30.07R
WASHINGTON CO* CLOUDY    64  41  42 N5        30.07R
$$

PAZ004>006-010>012-017>019-024>028-033>037-041-042-045-046-049>053-190300-
CENTRAL PENNSYLVANIA

CITY           SKY/WX    TMP DP  RH WIND       PRES   REMARKS
BRADFORD       PTCLDY    52  22  30 N7        30.13R
DUBOIS         MOCLDY    59  36  42 N8        30.09R
CLEARFIELD     MOCLDY    61  33  35 NE6       30.09R
JOHNSTOWN      CLOUDY    63  37  38 N9        30.07R
ALTOONA        CLOUDY    64  39  39 NE7       30.06R
STATE COLLEGE  NOT AVBL
WILLIAMSPORT   PTCLDY    63  26  24 N10       30.08R
SELINSGROVE    MOCLDY    64  36  35 NE9       30.06R
FT INDIANTOWN  MOCLDY    71  35  26 N10       30.01R
CAPITAL CITY   MOCLDY    69  41  36 NW3       30.00R
HARRISBURG     MOCLDY    68  42  38 CALM      29.99R
YORK           CLOUDY    58  48  69 CALM      29.99R
$$

PAZ038>040-043-044-047-048-054-055-060>062-067>071-190300-
EASTERN PENNSYLVANIA

CITY           SKY/WX    TMP DP  RH WIND       PRES   REMARKS
SCRANTON       CLEAR     60  25  26 N13       30.09R
MOUNT POCONO   PTCLDY    56  18  22 N13G18    30.07R
ALLENTOWN      PTCLDY    67  35  30 N8        30.03R
QUAKERTOWN*    MOCLDY    68  41  37 N9G18     30.02R
READING        MOCLDY    70  38  31 NE14G24   30.00R
LANCASTER      MOCLDY    65  44  46 NW8       29.99R
COATESVILLE    MOCLDY    66  45  45 W3        29.99R
POTTSTOWN      MOCLDY    70  39  32 N15G24    30.01R
BLUE BELL      MOCLDY    70  45  40 CALM      29.98R
DOYLESTOWN     MOCLDY    69  38  32 N10       29.99R
WILLOW GROVE   NOT AVBL
NORTH PHILA    MOCLDY    73  40  30 NW8G20    29.99R
PHILADELPHIA   CLOUDY    67  47  48 SW5       29.97R
$$


USA.gov is the U.S. government's official web portal to all federal, state and local government web resources and services.